Location: DARK SKY Beskydy - Park tmavé oblohy, www.darkskybeskydy.cz
(49.4926°N, 18.5016°E)
Time: 14:44:22
(UTC+01:00)

Vanguard 1 - Pass Details

Date: 15 November 2025
Orbit: 650 x 3821 km, 34.2° (Epoch: 07 December)

Event Time Altitude Azimuth Distance (km) Brightness Sun altitude
Rises 18:08:52 0° 249° (WSW) 7,259 15.9 -20.2°
Reaches altitude 10° 18:13:32 10° 245° (WSW) 6,506 15.2 -21.0°
Maximum altitude 18:34:50 52° 177° (S) 4,347 13.2 -24.4°
Enters shadow 18:47:39 27° 120° (ESE) 5,060 13.1 -26.5°
